Flag for Germany Past Weather in Bietigheim-Bissingen, Baden-Württemberg, Germany — Yesterday and Last 2 Weeks

Now
77 °F

Scattered clouds.


Feels Like: 79 °F
Forecast: 63 / 81 °F
Wind: 8 mph from Southwest

Location: Stuttgart-Echterdingen

Current Time: Jul 29, 2016 at 2:25:59 PM

Latest Report: Jul 29, 2016 at 1:50 PM


Visibility: N/A

Pressure: 30.01 "Hg

Humidity: 54%

Dew Point: 59 °F

Location of Bietigheim-BissingenLocation

Past Weather in Bietigheim-Bissingen — Graph

°F

Bietigheim-Bissingen Temperature Yesterday

Maximum temperature yesterday: 77 °F (at 1:20 PM)
Minimum temperature yesterday: 59 °F (at 6:20 AM)
Average temperature yesterday: 68 °F

High & Low Weather Summary for the Past Weeks

 TemperatureHumidityPressure
High91 °F (Jul 20, 4:20 PM)100% (Jul 18, 6:20 AM)30.33 "Hg (Jul 18, 6:20 AM)
Low48 °F (Jul 15, 5:50 AM)28% (Jul 20, 4:50 PM)29.92 "Hg (Jul 21, 3:50 AM)
Average69 °F71%30.12 "Hg
* Reported Jul 14 1:20 PM — Jul 29 1:20 PM, Bietigheim-Bissingen, Weather by CustomWeather, © 2016

Note: Actual official high and low records may vary slightly from our data, if they occured in-between our weather recording intervals... More about our weather records

Advertising

Bietigheim-Bissingen Weather History for the Previous 24 Hours

Scroll right to see more
 ConditionsComfort  
Time TempWeatherWind HumidityBarometerVisibility
1:20 PM
Fri, Jul 29
75 °FScattered clouds.9 mph57%30.01 "HgN/A
12:50 PM75 °FBroken clouds.8 mph54%30.01 "HgN/A
12:20 PM73 °FBroken clouds.10 mph57%30.01 "HgN/A
11:50 AM73 °FBroken clouds.8 mph57%30.01 "HgN/A
11:20 AM75 °FScattered clouds.7 mph61%30.04 "HgN/A
10:50 AM72 °FScattered clouds.7 mph69%30.04 "HgN/A
10:20 AM70 °FScattered clouds.8 mph73%30.04 "HgN/A
9:50 AM70 °FScattered clouds.6 mph73%30.04 "HgN/A
9:20 AM68 °FScattered clouds.5 mph78%30.04 "HgN/A
8:50 AM66 °FScattered clouds.5 mph83%30.04 "HgN/A
8:20 AM66 °FPartly sunny.5 mph83%30.04 "HgN/A
7:50 AM64 °FScattered clouds.3 mph88%30.04 "HgN/A
7:20 AM63 °FPartly sunny.3 mph94%30.04 "HgN/A
6:50 AM63 °FPartly cloudy.3 mph94%30.04 "HgN/A
6:20 AM63 °FPartly cloudy.5 mph94%30.04 "HgN/A
5:50 AM63 °FPassing clouds.3 mph94%30.04 "HgN/A
5:20 AM63 °FPassing clouds.3 mph94%30.04 "HgN/A
4:50 AM63 °FPassing clouds.3 mph94%30.04 "HgN/A
4:20 AM63 °FPartly cloudy.3 mph94%30.04 "HgN/A
3:50 AM63 °FPassing clouds.3 mph94%30.04 "HgN/A
3:20 AM64 °FPassing clouds.3 mph88%30.04 "HgN/A
2:50 AM64 °FPassing clouds.3 mph88%30.04 "HgN/A
2:20 AM64 °FSprinkles. Passing clouds.3 mph88%30.04 "HgN/A
1:50 AM66 °FSprinkles. Partly cloudy.3 mph83%30.04 "HgN/A
1:20 AM66 °FPartly cloudy.6 mph83%30.04 "HgN/A
12:50 AM66 °FPassing clouds.3 mph83%30.04 "HgN/A
12:20 AM66 °FPartly cloudy.2 mph83%30.04 "HgN/A
11:50 PM
Thu, Jul 28
66 °FPartly cloudy.2 mph88%30.04 "HgN/A
11:20 PM68 °FSprinkles. Passing clouds.1 mph83%30.04 "HgN/A
10:50 PM68 °FPassing clouds.2 mph83%30.04 "HgN/A
10:20 PM66 °FPartly cloudy.9 mph94%30.04 "HgN/A
9:50 PM66 °FSprinkles. Broken clouds.2 mph88%30.04 "HgN/A
9:20 PM66 °FBroken clouds.1 mph88%30.01 "HgN/A
8:50 PM66 °FBroken clouds.2 mph94%30.01 "HgN/A
8:20 PM68 °FBroken clouds.3 mph88%30.01 "HgN/A
7:50 PM68 °FBroken clouds.3 mph88%30.01 "HgN/A
7:20 PM70 °FPartly sunny.2 mph78%30.01 "HgN/A
6:50 PM68 °FScattered showers. Scattered clouds.1 mph83%30.01 "HgN/A
6:20 PM66 °FRain showers. Broken clouds.5 mph88%30.01 "HgN/A
5:50 PM68 °FStrong thunderstorms. Partly sunny.9 mph83%30.04 "HgN/A
5:20 PM73 °FThundershowers. Broken clouds.6 mph61%30.04 "HgN/A
4:50 PM75 °FSprinkles. Partly sunny.3 mph57%30.04 "HgN/A
4:20 PM75 °FScattered clouds.7 mph57%30.04 "HgN/A
3:50 PM75 °FScattered clouds.7 mph61%30.04 "HgN/A
3:20 PM75 °FPartly sunny.8 mph61%30.04 "HgN/A
2:50 PM73 °FPartly sunny.7 mph65%30.07 "HgN/A
2:20 PM73 °FBroken clouds.10 mph65%30.07 "HgN/A
Weather by CustomWeather, © 2016

See weather overviewHow to use our weather pages